User: anonymous   Login
Location: Unspecified
(0.0000°N, 0.0000°E)
Time: 17:48:19
(UTC+00:00)
Language:

USA 103 - Orbit

View from above orbital plane
View from above orbital plane
View from above satellite
View from above satellite

Ground track
Ground track

The orbit data is extracted from the following two-line orbital elements,

1 23097U 94026A   19045.49222635 0.00000000  00000-0  00000-0 0    07
2 23097  64.0390  79.2142 6790300 261.1711  98.8289  2.00609272    06
Epoch (UTC): 14 February 2019 11:48:48
Eccentricity: 0.6790300
inclination: 64.0390°
perigee height: 2145 km
apogee height: 38210 km
right ascension of ascending node: 79.2142°
argument of perigee: 261.1711°
revolutions per day: 2.00609272
mean anomaly at epoch: 98.8289°
orbit number at epoch: 0

The dashed part of the orbit path shows where the satellite is in the earth's shadow,  

DLR